WBANNO,USDM_WEEK,LONGITUDE,LATITUDE,SMVWC_5_CM_MEAN,SMANOM_5_CM_MEAN,SMPERC_5_CM_30COUNTS,SMPERC_5_CM_70COUNTS,SMVWC_10_CM_MEAN,SMANOM_10_CM_MEAN,SMPERC_10_CM_30COUNTS,SMPERC_10_CM_70COUNTS,SMVWC_20_CM_MEAN,SMANOM_20_CM_MEAN,SMPERC_20_CM_30COUNTS,SMPERC_20_CM_70COUNTS,SMVWC_50_CM_MEAN,SMANOM_50_CM_MEAN,SMPERC_50_CM_30COUNTS,SMPERC_50_CM_70COUNTS,SMVWC_100_CM_MEAN,SMANOM_100_CM_MEAN,SMPERC_100_CM_30COUNTS,SMPERC_100_CM_70COUNTS,SMVWC_TOP_CM_MEAN,SMANOM_TOP_CM_MEAN,SMPERC_TOP_CM_30COUNTS,SMPERC_TOP_CM_70COUNTS,SMVWC_COLUMN_CM_MEAN,SMANOM_COLUMN_CM_MEAN,SMPERC_COLUMN_CM_30COUNTS,SMPERC_COLUMN_CM_70COUNTS
53960,20090503,-91.87,30.09,,,,,,,,,,,,,,,,,,,,,,,,,,,,
53960,20090504,-91.87,30.09,,,,,,,,,,,,,,,,,,,,,,,,,,,,
53960,20090505,-91.87,30.09,,,,,,,,,,,,,,,,,,,,,,,,,,,,
53960,20090506,-91.87,30.09,,,,,,,,,,,,,,,,,,,,,,,,,,,,
53960,20090507,-91.87,30.09,,,,,,,,,,,,,,,,,,,,,,,,,,,,
53960,20090508,-91.87,30.09,,,,,,,,,,,,,,,,,,,,,,,,,,,,
53960,20090509,-91.87,30.09,0.216,-0.5,1,0,0.253,-0.44,0,0,0.34,0.13,0,0,0.405,0.03,0,0,0.441,0.55,0,0.929,0.234,-0.5,0.801,0,0.331,-0.09,0,0
53960,20090510,-91.87,30.09,0.212,-0.51,1,0,0.249,-0.45,0,0,0.339,0.13,0,0,0.405,0.05,0,0,0.442,0.57,0,0.994,0.23,-0.51,0.827,0,0.329,-0.1,0,0
53960,20090511,-91.87,30.09,0.205,-0.53,1,0,0.244,-0.47,0.119,0,0.339,0.13,0,0,0.405,0.06,0,0,0.444,0.58,0,1,0.224,-0.54,0.833,0,0.327,-0.11,0,0
53960,20090512,-91.87,30.09,0.197,-0.56,1,0,0.238,-0.5,0.262,0,0.338,0.13,0,0,0.405,0.07,0,0,0.445,0.59,0,1,0.218,-0.57,0.875,0,0.325,-0.12,0,0
53960,20090513,-91.87,30.09,0.19,-0.59,1,0,0.232,-0.52,0.405,0,0.338,0.13,0,0,0.405,0.09,0,0,0.445,0.6,0,1,0.211,-0.59,0.923,0,0.322,-0.14,0,0
53960,20090514,-91.87,30.09,0.183,-0.62,1,0,0.225,-0.55,0.548,0,0.337,0.13,0,0,0.405,0.1,0,0,0.446,0.61,0,1,0.204,-0.63,0.97,0,0.319,-0.16,0,0
53960,20090515,-91.87,30.09,0.176,-0.65,1,0,0.219,-0.58,0.69,0,0.336,0.13,0,0,0.405,0.12,0,0,0.446,0.62,0,1,0.197,-0.66,1,0,0.316,-0.18,0,0
53960,20090516,-91.87,30.09,0.169,-0.68,1,0,0.212,-0.61,0.833,0,0.335,0.12,0,0,0.405,0.13,0,0,0.446,0.62,0,1,0.191,-0.69,1,0,0.313,-0.2,0,0
53960,20090517,-91.87,30.09,0.163,-0.71,1,0,0.205,-0.64,0.976,0,0.333,0.12,0,0,0.405,0.13,0,0,0.447,0.62,0,1,0.184,-0.72,1,0,0.311,-0.22,0,0
53960,20090518,-91.87,30.09,0.157,-0.73,1,0,0.198,-0.67,1,0,0.332,0.11,0,0,0.405,0.14,0,0,0.447,0.62,0,1,0.178,-0.74,1,0,0.308,-0.24,0,0
53960,20090519,-91.87,30.09,0.152,-0.75,1,0,0.192,-0.7,1,0,0.33,0.09,0,0,0.405,0.15,0,0,0.447,0.62,0,1,0.172,-0.77,1,0,0.305,-0.26,0,0
53960,20090520,-91.87,30.09,0.147,-0.78,1,0,0.185,-0.72,1,0,0.328,0.08,0,0,0.404,0.14,0,0,0.447,0.61,0,1,0.166,-0.8,1,0,0.302,-0.27,0,0
53960,20090521,-91.87,30.09,0.141,-0.8,1,0,0.179,-0.75,1,0,0.326,0.06,0,0,0.403,0.14,0,0,0.446,0.6,0,1,0.16,-0.83,1,0,0.299,-0.29,0,0
53960,20090522,-91.87,30.09,0.136,-0.83,1,0,0.173,-0.77,1,0,0.323,0.04,0,0,0.403,0.14,0,0,0.446,0.59,0,1,0.155,-0.85,1,0,0.296,-0.31,0,0
53960,20090523,-91.87,30.09,0.133,-0.85,1,0,0.169,-0.79,1,0,0.321,0.02,0,0,0.402,0.14,0,0,0.445,0.58,0,1,0.151,-0.88,1,0,0.294,-0.33,0.065,0
53960,20090524,-91.87,30.09,0.13,-0.86,1,0,0.165,-0.8,1,0,0.319,0,0,0,0.401,0.14,0,0,0.445,0.57,0,1,0.148,-0.89,1,0,0.292,-0.35,0.155,0
53960,20090525,-91.87,30.09,0.128,-0.88,1,0,0.162,-0.81,1,0,0.317,-0.02,0,0,0.401,0.14,0,0,0.444,0.56,0,1,0.145,-0.91,1,0,0.29,-0.36,0.268,0
53960,20090526,-91.87,30.09,0.13,-0.87,1,0,0.16,-0.82,1,0,0.315,-0.04,0,0,0.4,0.14,0,0,0.443,0.55,0,1,0.145,-0.91,1,0,0.29,-0.37,0.274,0
53960,20090527,-91.87,30.09,0.134,-0.85,1,0,0.16,-0.82,1,0,0.314,-0.06,0,0,0.4,0.15,0,0,0.442,0.53,0,1,0.147,-0.89,1,0,0.29,-0.37,0.274,0
53960,20090528,-91.87,30.09,0.14,-0.82,1,0,0.16,-0.81,1,0,0.313,-0.07,0,0,0.4,0.17,0,0,0.442,0.52,0,1,0.15,-0.87,1,0,0.291,-0.36,0.274,0
53960,20090529,-91.87,30.09,0.145,-0.8,1,0,0.161,-0.79,1,0,0.313,-0.08,0,0,0.401,0.18,0,0,0.441,0.51,0,1,0.153,-0.85,1,0,0.292,-0.35,0.274,0
53960,20090530,-91.87,30.09,0.149,-0.79,1,0,0.162,-0.78,1,0,0.313,-0.09,0,0,0.401,0.2,0,0.036,0.44,0.5,0,1,0.156,-0.83,1,0,0.293,-0.34,0.208,0
53960,20090531,-91.87,30.09,0.152,-0.79,1,0,0.163,-0.76,1,0,0.313,-0.09,0,0,0.401,0.22,0,0.101,0.44,0.49,0,0.988,0.157,-0.82,1,0,0.294,-0.33,0.119,0
53960,20090601,-91.87,30.09,0.154,-0.79,1,0,0.163,-0.73,1,0,0.313,-0.09,0,0,0.401,0.23,0,0.119,0.439,0.47,0,0.887,0.158,-0.8,1,0,0.294,-0.32,0.012,0
53960,20090602,-91.87,30.09,0.151,-0.81,1,0,0.163,-0.72,1,0,0.312,-0.1,0,0,0.401,0.25,0,0.119,0.437,0.46,0,0.744,0.157,-0.8,1,0,0.293,-0.32,0.089,0
53960,20090603,-91.87,30.09,0.147,-0.85,1,0,0.163,-0.7,1,0,0.312,-0.1,0,0,0.4,0.25,0,0.119,0.435,0.44,0,0.601,0.155,-0.81,1,0,0.291,-0.33,0.232,0
53960,20090604,-91.87,30.09,0.141,-0.9,1,0,0.161,-0.69,1,0,0.311,-0.1,0,0,0.4,0.26,0,0.119,0.432,0.41,0,0.458,0.151,-0.82,1,0,0.289,-0.35,0.375,0
53960,20090605,-91.87,30.09,0.137,-0.93,1,0,0.159,-0.69,1,0,0.31,-0.1,0,0,0.399,0.26,0,0.119,0.429,0.38,0,0.315,0.148,-0.84,1,0,0.287,-0.36,0.506,0
53960,20090606,-91.87,30.09,0.133,-0.95,1,0,0.157,-0.69,1,0,0.308,-0.11,0,0,0.398,0.27,0,0.083,0.426,0.35,0,0.173,0.145,-0.85,1,0,0.284,-0.38,0.649,0
53960,20090607,-91.87,30.09,0.13,-0.98,1,0,0.155,-0.69,1,0,0.306,-0.13,0,0,0.397,0.27,0,0.018,0.422,0.32,0,0.042,0.142,-0.87,1,0,0.282,-0.39,0.792,0
53960,20090608,-91.87,30.09,0.127,-1.01,1,0,0.153,-0.7,1,0,0.304,-0.15,0,0,0.395,0.27,0,0,0.418,0.28,0,0,0.14,-0.88,1,0,0.279,-0.41,0.929,0
53960,20090609,-91.87,30.09,0.125,-1.02,1,0,0.151,-0.71,1,0,0.302,-0.17,0,0,0.393,0.27,0,0,0.414,0.25,0,0,0.138,-0.9,1,0,0.277,-0.42,0.988,0
53960,20090610,-91.87,30.09,0.123,-1.04,1,0,0.149,-0.71,1,0,0.299,-0.19,0,0,0.392,0.27,0,0,0.41,0.21,0,0,0.136,-0.91,1,0,0.274,-0.44,0.988,0
53960,20090611,-91.87,30.09,0.12,-1.06,1,0,0.147,-0.72,1,0,0.296,-0.21,0,0,0.39,0.26,0,0,0.406,0.17,0,0,0.133,-0.93,1,0,0.272,-0.46,0.988,0
53960,20090612,-91.87,30.09,0.116,-1.09,1,0,0.144,-0.73,1,0,0.293,-0.24,0,0,0.387,0.24,0,0,0.402,0.13,0,0,0.13,-0.94,1,0,0.269,-0.48,1,0
53960,20090613,-91.87,30.09,0.113,-1.12,1,0,0.142,-0.74,1,0,0.29,-0.27,0.018,0,0.384,0.22,0,0,0.398,0.09,0,0,0.127,-0.96,1,0,0.265,-0.5,1,0
53960,20090614,-91.87,30.09,0.11,-1.14,1,0,0.139,-0.75,1,0,0.287,-0.29,0.054,0,0.382,0.2,0,0,0.394,0.04,0,0,0.124,-0.98,1,0,0.262,-0.52,1,0
53960,20090615,-91.87,30.09,0.107,-1.18,1,0,0.137,-0.77,1,0,0.283,-0.32,0.174,0,0.379,0.17,0,0,0.39,-0.01,0,0,0.122,-1.01,1,0,0.259,-0.55,1,0
53960,20090616,-91.87,30.09,0.104,-1.22,1,0,0.135,-0.78,1,0,0.28,-0.34,0.317,0,0.376,0.14,0,0,0.386,-0.07,0,0,0.119,-1.03,1,0,0.256,-0.57,1,0
53960,20090617,-91.87,30.09,0.101,-1.26,1,0,0.133,-0.8,1,0,0.277,-0.37,0.458,0,0.373,0.11,0,0,0.382,-0.11,0,0,0.117,-1.06,1,0,0.253,-0.6,1,0
53960,20090618,-91.87,30.09,0.098,-1.3,1,0,0.131,-0.81,1,0,0.274,-0.39,0.601,0,0.37,0.08,0,0,0.378,-0.16,0,0,0.114,-1.09,1,0,0.25,-0.63,1,0
53960,20090619,-91.87,30.09,0.095,-1.35,1,0,0.129,-0.83,1,0,0.272,-0.42,0.744,0,0.367,0.05,0,0,0.374,-0.21,0,0,0.112,-1.11,1,0,0.247,-0.66,1,0
53960,20090620,-91.87,30.09,0.093,-1.39,1,0,0.127,-0.86,1,0,0.269,-0.45,0.869,0,0.364,0.02,0,0,0.37,-0.25,0,0,0.11,-1.14,1,0,0.245,-0.69,1,0
53960,20090621,-91.87,30.09,0.091,-1.43,1,0,0.125,-0.88,1,0,0.267,-0.48,0.976,0,0.362,-0.01,0,0,0.366,-0.29,0,0,0.108,-1.17,1,0,0.242,-0.72,1,0
53960,20090622,-91.87,30.09,0.088,-1.46,1,0,0.124,-0.9,1,0,0.265,-0.5,1,0,0.359,-0.04,0,0,0.363,-0.32,0,0,0.106,-1.19,1,0,0.24,-0.75,1,0
53960,20090623,-91.87,30.09,0.086,-1.49,1,0,0.123,-0.92,1,0,0.263,-0.53,1,0,0.357,-0.07,0,0,0.359,-0.36,0,0,0.105,-1.22,1,0,0.237,-0.78,1,0
53960,20090624,-91.87,30.09,0.084,-1.52,1,0,0.121,-0.95,1,0,0.261,-0.55,1,0,0.355,-0.11,0,0,0.355,-0.4,0,0,0.103,-1.24,1,0,0.235,-0.81,1,0
53960,20090625,-91.87,30.09,0.082,-1.55,1,0,0.12,-0.98,1,0,0.259,-0.58,1,0,0.352,-0.14,0.03,0,0.35,-0.43,0.024,0,0.101,-1.26,1,0,0.233,-0.83,1,0
53960,20090626,-91.87,30.09,0.081,-1.58,1,0,0.119,-1.02,1,0,0.258,-0.59,1,0,0.35,-0.18,0.155,0,0.346,-0.48,0.155,0,0.1,-1.28,1,0,0.231,-0.86,1,0
53960,20090627,-91.87,30.09,0.079,-1.6,1,0,0.118,-1.06,1,0,0.257,-0.61,1,0,0.348,-0.23,0.298,0,0.341,-0.52,0.298,0,0.099,-1.3,1,0,0.229,-0.89,1,0
53960,20090628,-91.87,30.09,0.077,-1.62,1,0,0.117,-1.1,1,0,0.255,-0.62,1,0,0.346,-0.27,0.44,0,0.337,-0.57,0.44,0,0.097,-1.32,1,0,0.226,-0.92,1,0
53960,20090629,-91.87,30.09,0.076,-1.64,1,0,0.116,-1.14,1,0,0.254,-0.64,1,0,0.344,-0.32,0.583,0,0.332,-0.63,0.583,0,0.096,-1.35,1,0,0.224,-0.95,1,0
53960,20090630,-91.87,30.09,0.092,-1.54,0.923,0,0.13,-1.1,0.923,0,0.26,-0.58,0.923,0,0.346,-0.32,0.643,0,0.33,-0.65,0.649,0,0.111,-1.26,0.923,0,0.232,-0.91,0.923,0
53960,20090701,-91.87,30.09,0.116,-1.38,0.869,0,0.152,-1,0.78,0,0.274,-0.45,0.78,0,0.35,-0.3,0.643,0,0.331,-0.65,0.649,0,0.134,-1.14,0.821,0,0.245,-0.81,0.78,0
53960,20090702,-91.87,30.09,0.135,-1.26,0.869,0,0.172,-0.91,0.679,0,0.287,-0.33,0.637,0,0.354,-0.29,0.613,0,0.333,-0.65,0.685,0,0.154,-1.03,0.821,0,0.256,-0.73,0.637,0
53960,20090703,-91.87,30.09,0.153,-1.14,0.869,0,0.19,-0.83,0.679,0,0.299,-0.22,0.494,0,0.358,-0.27,0.488,0,0.334,-0.66,0.69,0,0.171,-0.94,0.821,0,0.267,-0.66,0.56,0
53960,20090704,-91.87,30.09,0.168,-1.06,0.869,0,0.206,-0.75,0.679,0,0.311,-0.12,0.351,0,0.362,-0.25,0.345,0,0.335,-0.66,0.69,0,0.187,-0.86,0.821,0,0.276,-0.6,0.56,0
53960,20090705,-91.87,30.09,0.181,-0.99,0.869,0,0.22,-0.69,0.679,0,0.322,-0.02,0.208,0,0.365,-0.24,0.202,0,0.336,-0.67,0.69,0,0.201,-0.8,0.821,0,0.285,-0.54,0.56,0
53960,20090706,-91.87,30.09,0.192,-0.93,0.869,0,0.233,-0.63,0.679,0,0.332,0.06,0.065,0,0.37,-0.21,0.06,0,0.337,-0.68,0.69,0,0.213,-0.76,0.821,0,0.293,-0.5,0.56,0
53960,20090707,-91.87,30.09,0.189,-0.97,0.929,0.012,0.232,-0.67,0.738,0,0.336,0.09,0,0.012,0.371,-0.22,0.018,0.012,0.338,-0.7,0.756,0,0.211,-0.81,0.881,0.012,0.293,-0.52,0.619,0.012
53960,20090708,-91.87,30.09,0.207,-0.84,0.839,0.065,0.244,-0.6,0.738,0.03,0.347,0.18,0,0.155,0.386,-0.08,0.018,0.155,0.349,-0.58,0.756,0.036,0.226,-0.71,0.839,0.06,0.307,-0.41,0.619,0.119
53960,20090709,-91.87,30.09,0.228,-0.7,0.696,0.113,0.258,-0.52,0.696,0.048,0.359,0.27,0,0.298,0.4,0.05,0.018,0.298,0.362,-0.44,0.696,0.155,0.243,-0.6,0.696,0.089,0.321,-0.28,0.619,0.214
53960,20090710,-91.87,30.09,0.247,-0.57,0.554,0.113,0.274,-0.43,0.554,0.048,0.37,0.36,0,0.44,0.412,0.17,0.018,0.44,0.375,-0.29,0.56,0.298,0.26,-0.49,0.554,0.089,0.336,-0.15,0.554,0.28
53960,20090711,-91.87,30.09,0.264,-0.46,0.411,0.113,0.289,-0.34,0.411,0.048,0.38,0.44,0,0.583,0.423,0.28,0.018,0.583,0.389,-0.13,0.417,0.44,0.276,-0.39,0.411,0.089,0.349,-0.03,0.411,0.28
53960,20090712,-91.87,30.09,0.28,-0.36,0.369,0.113,0.304,-0.26,0.268,0.048,0.39,0.52,0,0.726,0.434,0.39,0.018,0.726,0.404,0.04,0.274,0.583,0.292,-0.3,0.292,0.089,0.363,0.09,0.268,0.28
53960,20090713,-91.87,30.09,0.296,-0.26,0.369,0.113,0.318,-0.17,0.155,0.048,0.4,0.59,0,0.869,0.445,0.49,0.018,0.869,0.419,0.22,0.131,0.72,0.307,-0.21,0.292,0.089,0.376,0.2,0.125,0.28
53960,20090714,-91.87,30.09,0.305,-0.23,0.387,0.101,0.329,-0.12,0.173,0.048,0.408,0.65,0,0.935,0.453,0.58,0,0.911,0.432,0.38,0,0.768,0.317,-0.17,0.31,0.077,0.385,0.28,0,0.268
53960,20090715,-91.87,30.09,0.284,-0.44,0.53,0.048,0.317,-0.23,0.315,0.018,0.401,0.58,0,0.792,0.446,0.5,0,0.768,0.431,0.37,0,0.732,0.3,-0.34,0.452,0.03,0.376,0.17,0,0.161
53960,20090716,-91.87,30.09,0.276,-0.52,0.554,0.006,0.311,-0.29,0.339,0,0.395,0.52,0,0.738,0.441,0.45,0,0.625,0.429,0.34,0,0.613,0.294,-0.41,0.476,0,0.37,0.12,0,0.065
53960,20090717,-91.87,30.09,0.269,-0.58,0.655,0.006,0.307,-0.34,0.357,0,0.391,0.47,0,0.72,0.437,0.4,0,0.482,0.425,0.3,0,0.47,0.288,-0.47,0.554,0,0.366,0.07,0,0
53960,20090718,-91.87,30.09,0.28,-0.49,0.685,0.119,0.311,-0.3,0.375,0.042,0.395,0.52,0,0.72,0.444,0.52,0,0.452,0.423,0.29,0,0.393,0.295,-0.41,0.583,0.083,0.371,0.14,0,0.113
53960,20090719,-91.87,30.09,0.292,-0.38,0.583,0.167,0.316,-0.25,0.375,0.042,0.399,0.56,0,0.72,0.449,0.61,0,0.452,0.423,0.3,0,0.393,0.304,-0.32,0.56,0.095,0.376,0.23,0,0.256
53960,20090720,-91.87,30.09,0.303,-0.27,0.44,0.167,0.323,-0.18,0.345,0.042,0.402,0.61,0,0.72,0.452,0.67,0,0.452,0.423,0.31,0,0.399,0.313,-0.23,0.417,0.095,0.381,0.31,0,0.399
53960,20090721,-91.87,30.09,0.315,-0.16,0.298,0.167,0.33,-0.11,0.202,0.042,0.405,0.65,0,0.786,0.456,0.73,0,0.542,0.424,0.32,0,0.494,0.323,-0.13,0.274,0.095,0.386,0.4,0,0.542
53960,20090722,-91.87,30.09,0.326,-0.04,0.155,0.167,0.339,-0.02,0.06,0.042,0.408,0.7,0,0.929,0.459,0.8,0,0.685,0.425,0.35,0,0.637,0.332,-0.02,0.131,0.095,0.391,0.49,0,0.661
53960,20090723,-91.87,30.09,0.331,0,0.131,0.173,0.343,0.02,0.036,0.042,0.41,0.74,0,0.982,0.462,0.85,0,0.827,0.427,0.39,0,0.774,0.337,0.03,0.107,0.095,0.395,0.55,0,0.78
53960,20090724,-91.87,30.09,0.339,0.08,0.03,0.173,0.347,0.07,0.018,0.042,0.412,0.78,0,1,0.465,0.9,0,0.97,0.43,0.44,0,0.917,0.343,0.09,0.03,0.095,0.399,0.63,0,0.923
53960,20090725,-91.87,30.09,0.332,0.01,0,0.06,0.344,0.06,0,0,0.408,0.76,0,1,0.457,0.79,0,1,0.432,0.47,0,0.994,0.338,0.04,0,0.012,0.395,0.58,0,0.952
53960,20090726,-91.87,30.09,0.324,-0.06,0,0.012,0.34,0.02,0,0,0.404,0.73,0,1,0.453,0.73,0,1,0.431,0.48,0,0.994,0.332,-0.02,0,0,0.39,0.53,0,0.952
53960,20090727,-91.87,30.09,0.316,-0.12,0,0.012,0.335,-0.02,0,0,0.401,0.71,0,1,0.449,0.68,0,1,0.43,0.48,0,0.994,0.326,-0.08,0,0,0.386,0.48,0,0.851
53960,20090728,-91.87,30.09,0.312,-0.16,0,0.012,0.331,-0.06,0,0,0.398,0.69,0,1,0.447,0.65,0,1,0.43,0.49,0,0.994,0.321,-0.11,0,0,0.384,0.44,0,0.708
53960,20090729,-91.87,30.09,0.309,-0.17,0.012,0.012,0.327,-0.08,0,0,0.397,0.68,0,1,0.445,0.61,0,1,0.429,0.5,0,0.994,0.318,-0.13,0,0,0.381,0.41,0,0.589
53960,20090730,-91.87,30.09,0.298,-0.26,0.137,0,0.32,-0.14,0.048,0,0.394,0.65,0,1,0.442,0.59,0.006,0.994,0.429,0.51,0,1,0.309,-0.21,0.071,0,0.377,0.35,0,0.47
53960,20090731,-91.87,30.09,0.285,-0.36,0.28,0,0.31,-0.23,0.19,0,0.391,0.62,0,1,0.441,0.56,0.006,0.994,0.428,0.51,0,1,0.297,-0.31,0.214,0,0.371,0.26,0,0.327
53960,20090801,-91.87,30.09,0.272,-0.46,0.423,0,0.3,-0.32,0.327,0,0.388,0.57,0,1,0.439,0.53,0.012,0.988,0.428,0.53,0,1,0.286,-0.4,0.357,0,0.365,0.18,0,0.185
53960,20090802,-91.87,30.09,0.261,-0.54,0.565,0,0.29,-0.4,0.47,0,0.385,0.54,0,1,0.437,0.51,0.012,0.988,0.428,0.54,0,1,0.275,-0.48,0.5,0,0.36,0.11,0,0.042
53960,20090803,-91.87,30.09,0.254,-0.58,0.708,0,0.281,-0.47,0.613,0,0.382,0.5,0,1,0.435,0.49,0.012,0.988,0.428,0.55,0,1,0.267,-0.53,0.643,0,0.356,0.06,0,0
53960,20090804,-91.87,30.09,0.246,-0.64,0.851,0,0.273,-0.53,0.756,0,0.38,0.46,0,1,0.434,0.47,0.012,0.988,0.428,0.55,0,1,0.259,-0.59,0.786,0,0.352,0.01,0,0
53960,20090805,-91.87,30.09,0.237,-0.7,0.982,0,0.265,-0.59,0.899,0,0.377,0.42,0,0.94,0.432,0.45,0.012,0.988,0.428,0.56,0,1,0.251,-0.65,0.929,0,0.348,-0.05,0,0
53960,20090806,-91.87,30.09,0.228,-0.75,1,0,0.256,-0.64,0.994,0,0.374,0.38,0,0.815,0.43,0.43,0.006,0.994,0.428,0.57,0,1,0.242,-0.71,1,0,0.343,-0.1,0,0
53960,20090807,-91.87,30.09,0.22,-0.81,1,0,0.248,-0.69,0.994,0,0.371,0.34,0,0.673,0.428,0.4,0.006,0.988,0.428,0.57,0,1,0.234,-0.77,1,0,0.339,-0.16,0,0
53960,20090808,-91.87,30.09,0.213,-0.86,1,0,0.24,-0.75,1,0,0.368,0.3,0,0.53,0.426,0.37,0,0.875,0.427,0.57,0,1,0.226,-0.82,1,0,0.335,-0.21,0,0
53960,20090809,-91.87,30.09,0.206,-0.89,1,0,0.233,-0.8,1,0,0.364,0.25,0,0.387,0.424,0.33,0,0.732,0.427,0.56,0,1,0.219,-0.87,1,0,0.331,-0.26,0,0
53960,20090810,-91.87,30.09,0.207,-0.88,0.899,0,0.227,-0.84,1,0,0.361,0.21,0,0.244,0.42,0.27,0,0.589,0.426,0.55,0,0.994,0.217,-0.89,1,0,0.328,-0.3,0,0
53960,20090811,-91.87,30.09,0.209,-0.86,0.857,0,0.222,-0.86,1,0,0.358,0.17,0,0.101,0.418,0.23,0,0.452,0.425,0.53,0,0.976,0.215,-0.89,1,0,0.326,-0.32,0,0
53960,20090812,-91.87,30.09,0.21,-0.85,0.857,0,0.218,-0.88,1,0,0.355,0.14,0,0.018,0.415,0.18,0,0.31,0.424,0.5,0,0.923,0.214,-0.9,1,0,0.324,-0.35,0,0
53960,20090813,-91.87,30.09,0.211,-0.85,0.857,0,0.215,-0.9,1,0,0.352,0.1,0,0,0.412,0.12,0.006,0.167,0.422,0.47,0,0.804,0.213,-0.9,1,0,0.322,-0.37,0.006,0
53960,20090814,-91.87,30.09,0.211,-0.85,0.857,0,0.212,-0.91,1,0,0.349,0.07,0,0,0.411,0.1,0.006,0.054,0.42,0.43,0,0.661,0.212,-0.91,1,0,0.321,-0.39,0.077,0
53960,20090815,-91.87,30.09,0.21,-0.86,0.857,0,0.21,-0.93,1,0,0.346,0.04,0,0,0.408,0.04,0.006,0.03,0.418,0.39,0,0.518,0.21,-0.92,1,0,0.318,-0.41,0.202,0
53960,20090816,-91.87,30.09,0.209,-0.87,0.857,0,0.208,-0.94,1,0,0.343,0,0,0,0.404,-0.03,0.006,0.03,0.415,0.34,0,0.375,0.209,-0.93,1,0,0.316,-0.44,0.345,0
53960,20090817,-91.87,30.09,0.199,-0.95,0.958,0,0.205,-0.97,1,0,0.34,-0.04,0,0,0.4,-0.1,0.006,0.03,0.412,0.28,0,0.238,0.202,-0.98,1,0,0.311,-0.49,0.488,0
53960,20090818,-91.87,30.09,0.189,-1.04,1,0,0.2,-1.02,1,0,0.336,-0.08,0,0,0.394,-0.19,0.083,0.024,0.409,0.22,0,0.113,0.194,-1.05,1,0,0.306,-0.56,0.631,0
53960,20090819,-91.87,30.09,0.192,-1.03,0.958,0,0.198,-1.05,1,0,0.333,-0.13,0,0,0.39,-0.27,0.216,0.024,0.406,0.16,0,0.024,0.195,-1.06,1,0,0.304,-0.59,0.772,0
53960,20090820,-91.87,30.09,0.199,-1,0.958,0,0.197,-1.06,1,0,0.331,-0.17,0,0,0.386,-0.34,0.353,0.024,0.403,0.1,0,0,0.198,-1.04,1,0,0.303,-0.6,0.91,0
53960,20090821,-91.87,30.09,0.219,-0.85,0.868,0.054,0.211,-0.97,0.91,0,0.337,-0.11,0,0.09,0.392,-0.25,0.401,0.09,0.404,0.07,0,0,0.215,-0.92,0.91,0.018,0.313,-0.51,0.892,0.084
53960,20090822,-91.87,30.09,0.243,-0.68,0.725,0.054,0.232,-0.82,0.766,0,0.348,0,0,0.234,0.402,-0.09,0.401,0.234,0.407,0.09,0,0,0.237,-0.76,0.766,0.018,0.326,-0.37,0.766,0.168
53960,20090823,-91.87,30.09,0.264,-0.54,0.581,0.054,0.252,-0.67,0.623,0,0.358,0.11,0,0.377,0.411,0.06,0.401,0.377,0.411,0.12,0,0.006,0.258,-0.61,0.623,0.018,0.339,-0.25,0.623,0.168
53960,20090824,-91.87,30.09,0.282,-0.43,0.527,0.054,0.271,-0.54,0.479,0,0.368,0.21,0,0.521,0.42,0.21,0.401,0.521,0.415,0.15,0,0.006,0.276,-0.49,0.491,0.018,0.351,-0.14,0.479,0.168
53960,20090825,-91.87,30.09,0.296,-0.34,0.527,0.054,0.288,-0.42,0.335,0,0.376,0.29,0,0.623,0.429,0.34,0.323,0.665,0.419,0.19,0,0.006,0.292,-0.38,0.455,0.018,0.362,-0.04,0.335,0.168
53960,20090826,-91.87,30.09,0.298,-0.36,0.571,0.054,0.3,-0.34,0.304,0,0.383,0.37,0,0.619,0.436,0.46,0.19,0.786,0.424,0.23,0,0.006,0.299,-0.36,0.458,0.018,0.368,0.02,0.196,0.167
53960,20090827,-91.87,30.09,0.297,-0.4,0.571,0.054,0.309,-0.29,0.304,0,0.39,0.44,0,0.619,0.444,0.57,0.048,0.798,0.429,0.29,0,0.006,0.303,-0.36,0.458,0.018,0.374,0.06,0.054,0.167
53960,20090828,-91.87,30.09,0.283,-0.56,0.661,0,0.304,-0.36,0.393,0,0.387,0.4,0,0.53,0.439,0.49,0,0.708,0.43,0.3,0,0.006,0.294,-0.47,0.548,0,0.369,-0.01,0,0.083
53960,20090829,-91.87,30.09,0.267,-0.72,0.804,0,0.293,-0.48,0.536,0,0.381,0.32,0,0.387,0.433,0.36,0,0.565,0.429,0.29,0,0.006,0.28,-0.63,0.69,0,0.361,-0.13,0.101,0
53960,20090830,-91.87,30.09,0.255,-0.87,0.946,0,0.282,-0.61,0.679,0,0.376,0.24,0,0.244,0.428,0.27,0,0.423,0.428,0.28,0,0,0.268,-0.77,0.833,0,0.354,-0.22,0.244,0
53960,20090831,-91.87,30.09,0.245,-0.99,1,0,0.272,-0.73,0.821,0,0.372,0.18,0,0.101,0.424,0.19,0,0.28,0.428,0.27,0,0,0.259,-0.91,0.964,0,0.348,-0.31,0.387,0
53960,20090901,-91.87,30.09,0.237,-1.1,1,0,0.264,-0.85,0.964,0,0.369,0.13,0,0,0.421,0.1,0,0.137,0.427,0.27,0,0,0.251,-1.04,1,0,0.344,-0.39,0.53,0
53960,20090902,-91.87,30.09,0.23,-1.19,1,0,0.257,-0.97,1,0,0.366,0.08,0,0,0.417,0.02,0,0.012,0.427,0.27,0,0,0.244,-1.17,1,0,0.34,-0.47,0.673,0
53960,20090903,-91.87,30.09,0.224,-1.29,1,0,0.251,-1.09,1,0,0.364,0.04,0,0,0.414,-0.06,0.095,0,0.427,0.27,0,0,0.237,-1.28,1,0,0.336,-0.55,0.815,0
53960,20090904,-91.87,30.09,0.218,-1.37,1,0,0.245,-1.19,1,0,0.361,-0.01,0,0,0.41,-0.16,0.232,0,0.427,0.27,0,0,0.231,-1.4,1,0,0.332,-0.62,0.958,0
53960,20090905,-91.87,30.09,0.211,-1.46,1,0,0.239,-1.31,1,0,0.357,-0.06,0,0,0.406,-0.26,0.375,0,0.427,0.27,0,0,0.225,-1.51,1,0,0.328,-0.7,1,0
53960,20090906,-91.87,30.09,0.205,-1.55,1,0,0.233,-1.43,1,0,0.354,-0.11,0,0,0.401,-0.37,0.518,0,0.426,0.26,0,0,0.219,-1.61,1,0,0.324,-0.78,1,0
53960,20090907,-91.87,30.09,0.212,-1.48,0.929,0.018,0.232,-1.45,1,0,0.351,-0.15,0,0,0.396,-0.48,0.661,0,0.426,0.26,0,0,0.222,-1.58,0.929,0,0.324,-0.79,0.929,0
53960,20090908,-91.87,30.09,0.225,-1.33,0.839,0.018,0.24,-1.36,1,0,0.35,-0.16,0,0,0.392,-0.58,0.804,0,0.425,0.26,0,0,0.233,-1.44,0.917,0,0.327,-0.74,0.786,0
53960,20090909,-91.87,30.09,0.236,-1.2,0.839,0.018,0.248,-1.26,1,0,0.349,-0.17,0,0,0.389,-0.65,0.946,0,0.425,0.26,0,0,0.242,-1.3,0.917,0,0.329,-0.69,0.75,0
53960,20090910,-91.87,30.09,0.246,-1.07,0.839,0.018,0.256,-1.16,1,0,0.348,-0.17,0,0,0.385,-0.71,0.994,0,0.425,0.26,0,0,0.251,-1.17,0.917,0,0.332,-0.63,0.75,0
53960,20090911,-91.87,30.09,0.262,-0.88,0.744,0.018,0.265,-1.02,1,0,0.349,-0.16,0,0,0.383,-0.75,1,0,0.424,0.26,0,0,0.264,-0.99,0.833,0,0.337,-0.55,0.655,0
53960,20090912,-91.87,30.09,0.292,-0.54,0.601,0.155,0.286,-0.75,0.857,0.065,0.357,-0.02,0,0.119,0.394,-0.5,0.881,0.113,0.425,0.28,0,0,0.289,-0.66,0.69,0.101,0.351,-0.32,0.512,0.125
53960,20090913,-91.87,30.09,0.319,-0.23,0.458,0.232,0.306,-0.48,0.714,0.065,0.367,0.14,0,0.262,0.405,-0.24,0.738,0.256,0.425,0.29,0,0,0.313,-0.35,0.548,0.137,0.364,-0.09,0.369,0.268
53960,20090914,-91.87,30.09,0.339,-0.02,0.387,0.357,0.324,-0.23,0.571,0.19,0.38,0.35,0,0.405,0.422,0.14,0.595,0.399,0.427,0.33,0,0.101,0.332,-0.11,0.476,0.28,0.379,0.13,0.298,0.411
53960,20090915,-91.87,30.09,0.349,0.09,0.333,0.5,0.332,-0.12,0.429,0.226,0.389,0.51,0,0.548,0.434,0.41,0.452,0.542,0.431,0.38,0,0.244,0.34,0,0.345,0.399,0.387,0.26,0.298,0.554
53960,20090916,-91.87,30.09,0.361,0.23,0.19,0.631,0.34,0,0.286,0.226,0.398,0.64,0,0.69,0.445,0.64,0.31,0.685,0.434,0.42,0,0.387,0.35,0.13,0.202,0.399,0.396,0.4,0.19,0.696
53960,20090917,-91.87,30.09,0.373,0.38,0.048,0.667,0.349,0.13,0.143,0.238,0.406,0.77,0,0.833,0.454,0.87,0.167,0.827,0.437,0.47,0,0.53,0.361,0.28,0.06,0.411,0.404,0.54,0.048,0.839
53960,20090918,-91.87,30.09,0.385,0.52,0,0.81,0.36,0.28,0,0.381,0.415,0.91,0,0.976,0.467,1.14,0.024,0.97,0.441,0.52,0,0.673,0.373,0.43,0,0.554,0.414,0.69,0,0.982
53960,20090919,-91.87,30.09,0.382,0.5,0,0.815,0.359,0.29,0,0.381,0.416,0.91,0,1,0.466,1.12,0,1,0.444,0.56,0,0.815,0.37,0.42,0,0.595,0.413,0.68,0,1
53960,20090920,-91.87,30.09,0.38,0.51,0,0.881,0.359,0.3,0,0.381,0.415,0.88,0,1,0.464,1.09,0,1,0.446,0.6,0,0.952,0.369,0.43,0,0.673,0.413,0.68,0,1
53960,20090921,-91.87,30.09,0.371,0.45,0,0.804,0.355,0.26,0,0.256,0.409,0.78,0,1,0.457,0.94,0,1,0.447,0.61,0,0.982,0.363,0.37,0,0.56,0.408,0.61,0,1
53960,20090922,-91.87,30.09,0.366,0.42,0,0.661,0.352,0.24,0,0.22,0.406,0.72,0,1,0.453,0.88,0,1,0.446,0.61,0,0.923,0.359,0.35,0,0.44,0.405,0.58,0,1
53960,20090923,-91.87,30.09,0.37,0.48,0,0.643,0.356,0.29,0,0.315,0.408,0.74,0,1,0.457,0.95,0,1,0.446,0.61,0,0.923,0.363,0.41,0,0.554,0.407,0.62,0,1
53960,20090924,-91.87,30.09,0.378,0.57,0,0.75,0.36,0.34,0,0.446,0.412,0.77,0,1,0.462,1.06,0,1,0.446,0.63,0,0.923,0.369,0.48,0,0.685,0.412,0.67,0,1
53960,20090925,-91.87,30.09,0.381,0.6,0,0.75,0.361,0.36,0,0.446,0.413,0.78,0,1,0.464,1.1,0,1,0.446,0.64,0,0.923,0.371,0.51,0,0.685,0.413,0.69,0,1
53960,20090926,-91.87,30.09,0.385,0.65,0,0.75,0.364,0.39,0,0.524,0.415,0.79,0,1,0.467,1.14,0,1,0.447,0.65,0,0.923,0.374,0.55,0,0.685,0.416,0.72,0,1
53960,20090927,-91.87,30.09,0.388,0.69,0,0.75,0.365,0.41,0,0.667,0.417,0.81,0,1,0.468,1.17,0,1,0.447,0.66,0,0.929,0.377,0.58,0,0.714,0.417,0.74,0,1
53960,20090928,-91.87,30.09,0.391,0.72,0,0.827,0.367,0.44,0,0.81,0.418,0.82,0,1,0.469,1.19,0,1,0.448,0.68,0,0.94,0.379,0.6,0,0.827,0.418,0.76,0,1
53960,20090929,-91.87,30.09,0.394,0.75,0,0.97,0.368,0.47,0,0.952,0.418,0.83,0,1,0.47,1.21,0,1,0.449,0.7,0,1,0.381,0.64,0,0.97,0.42,0.79,0,1
53960,20090930,-91.87,30.09,0.386,0.7,0,1,0.364,0.43,0,0.976,0.413,0.78,0,1,0.466,1.13,0,1,0.45,0.72,0,1,0.375,0.59,0,1,0.416,0.75,0,1
53960,20091001,-91.87,30.09,0.374,0.6,0,0.899,0.358,0.38,0,0.833,0.408,0.72,0,1,0.459,1.02,0,1,0.45,0.73,0,1,0.366,0.52,0,0.935,0.41,0.69,0,1
53960,20091002,-91.87,30.09,0.363,0.52,0,0.786,0.351,0.33,0,0.708,0.402,0.67,0,1,0.453,0.92,0,1,0.45,0.74,0,1,0.357,0.45,0,0.821,0.404,0.63,0,1
53960,20091003,-91.87,30.09,0.365,0.52,0,0.786,0.351,0.34,0,0.708,0.402,0.66,0,1,0.453,0.92,0,1,0.45,0.75,0,1,0.358,0.46,0,0.821,0.404,0.64,0,1
53960,20091004,-91.87,30.09,0.369,0.55,0,0.786,0.353,0.37,0,0.708,0.404,0.68,0,1,0.454,0.97,0,1,0.451,0.76,0,1,0.361,0.5,0,0.821,0.406,0.66,0,1
53960,20091005,-91.87,30.09,0.378,0.62,0,0.786,0.358,0.43,0,0.708,0.41,0.74,0,1,0.46,1.08,0,1,0.452,0.78,0,1,0.368,0.56,0,0.821,0.412,0.72,0,1